Simultaneous Nadir Overpasses (SNOs) Predictions

Prediction of SNOs between AQUA and GOES-15 Satellite Orbit:

Table of predicted SNOs for the next 14.0 days since TLE Epoch: 2/26/2022
Index Date Time (AQUA) AQUA Lat,Lon GOES-15 Lat,Lon Distance(km) Time Diff (sec)
1 02/26/2022 10:00:57 -0.31,-126.08 0.03,-127.60 173.78 80
2 02/26/2022 22:22:20 -0.79,-131.26 -0.04,-127.61 414.94 80
3 02/28/2022 22:10:03 -0.22,-128.27 -0.04,-127.53 85.00 80
4 03/02/2022 21:57:47 0.42,-125.29 -0.04,-127.44 245.14 80
5 03/03/2022 10:19:01 0.70,-130.43 0.04,-127.40 345.36 80
6 03/05/2022 10:06:45 0.05,-127.45 0.04,-127.31 15.49 80
7 03/07/2022 09:54:28 -0.55,-124.46 0.04,-127.23 314.35 80
8 03/07/2022 22:15:51 -0.53,-129.65 -0.05,-127.23 275.04 80
9 03/09/2022 22:03:34 0.08,-126.66 -0.05,-127.13 54.27 80
10 03/11/2022 21:51:16 0.65,-123.66 -0.05,-127.03 382.93 80
